| time (UTC) | temp F | wind direction | speed knots | gust knots | rain 1hr in | rain 24hr in | rain mn in | humidity % | barometer mb |
| 20260510121553 | 72 | 302 | 0.9 | 3.5 | 0.01 | 0.28 | 0.05 | 100 | 1014.9 |
| 20260510120052 | 71 | 0 | 0.0 | 2.6 | 0.01 | 0.28 | 0.05 | 100 | 1014.7 |
| 20260510114549 | 71 | 0 | 0.0 | 0.9 | 0.01 | 0.28 | 0.05 | 100 | 1014.4 |
| 20260510113053 | 70 | 0 | 0.0 | 0.9 | 0.01 | 0.28 | 0.05 | 100 | 1014.2 |
| 20260510111554 | 70 | 0 | 0.0 | 0.0 | 0.00 | 0.27 | 0.04 | 99 | 1013.9 |
| 20260510110058 | 70 | 0 | 0.0 | 0.0 | 0.00 | 0.27 | 0.04 | 99 | 1013.8 |
| 20260510104552 | 70 | 0 | 0.0 | 0.0 | 0.00 | 0.28 | 0.04 | 99 | 1013.8 |
| 20260510103100 | 70 | 0 | 0.0 | 0.0 | 0.01 | 0.28 | 0.04 | 99 | 1013.6 |
| 20260510101605 | 70 | 0 | 0.0 | 0.0 | 0.01 | 0.28 | 0.04 | 100 | 1013.3 |
| 20260510100055 | 70 | 0 | 0.0 | 0.0 | 0.01 | 0.28 | 0.04 | 100 | 1013.3 |
| 20260510094553 | 71 | 0 | 0.0 | 0.9 | 0.01 | 0.28 | 0.04 | 99 | 1013.3 |
| 20260510093053 | 70 | 0 | 0.0 | 0.0 | 0.00 | 0.27 | 0.03 | 100 | 1013.0 |
| 20260510091556 | 70 | 0 | 0.0 | 0.9 | 0.00 | 0.27 | 0.03 | 99 | 1012.8 |
| 20260510090055 | 70 | 0 | 0.0 | 0.9 | 0.00 | 0.27 | 0.03 | 100 | 1012.4 |
| 20260510084552 | 70 | 0 | 0.0 | 0.0 | 0.00 | 0.27 | 0.03 | 99 | 1012.4 |
| 20260510083053 | 71 | 0 | 0.0 | 0.9 | 0.00 | 0.27 | 0.03 | 99 | 1012.3 |
| 20260510081557 | 71 | 284 | 0.0 | 0.9 | 0.00 | 0.27 | 0.03 | 99 | 1012.6 |
| 20260510080050 | 70 | 360 | 0.0 | 0.9 | 0.01 | 0.27 | 0.03 | 99 | 1012.8 |
| 20260510074602 | 70 | 0 | 0.0 | 0.0 | 0.01 | 0.27 | 0.03 | 99 | 1012.4 |
| 20260510073100 | 70 | 0 | 0.0 | 0.0 | 0.01 | 0.27 | 0.03 | 99 | 1012.2 |
| 20260510071552 | 70 | 0 | 0.0 | 0.0 | 0.02 | 0.27 | 0.03 | 99 | 1012.2 |
| 20260510070052 | 70 | 0 | 0.0 | 0.0 | 0.01 | 0.26 | 0.02 | 99 | 1012.1 |
| 20260510064555 | 70 | 0 | 0.0 | 0.0 | 0.01 | 0.26 | 0.02 | 99 | 1012.3 |
| 20260510063102 | 70 | 0 | 0.0 | 0.0 | 0.01 | 0.26 | 0.02 | 99 | 1012.3 |
| 20260510061603 | 70 | 0 | 0.0 | 0.0 | 0.00 | 0.25 | 0.01 | 99 | 1012.5 |
| 20260510060054 | 70 | 0 | 0.0 | 0.0 | 0.00 | 0.25 | 0.01 | 99 | 1012.9 |
| 20260510054600 | 70 | 0 | 0.0 | 0.9 | 0.01 | 0.25 | 0.01 | 99 | 1013.1 |
| 20260510053055 | 71 | 0 | 0.0 | 0.9 | 0.01 | 0.25 | 0.01 | 99 | 1013.3 |
| 20260510051554 | 71 | 0 | 0.0 | 1.7 | 0.01 | 0.25 | 0.01 | 99 | 1013.7 |
| 20260510050055 | 70 | 0 | 0.0 | 0.0 | 0.01 | 0.25 | 0.01 | 99 | 1014.0 |
| 20260510044553 | 70 | 0 | 0.0 | 0.0 | 0.00 | 0.29 | 0.00 | 99 | 1013.7 |
| 20260510043051 | 70 | 0 | 0.0 | 0.0 | 0.00 | 0.29 | 0.00 | 99 | 1013.7 |
| 20260510041620 | 71 | 0 | 0.0 | 0.0 | 0.00 | 0.29 | 0.00 | 99 | 1013.7 |
| 20260510040100 | 71 | 0 | 0.0 | 0.0 | 0.00 | 0.29 | 0.00 | 99 | 1013.8 |
| 20260510034604 | 71 | 0 | 0.0 | 0.0 | 0.00 | 0.43 | 0.29 | 99 | 1013.8 |
| 20260510033116 | 71 | 0 | 0.0 | 0.9 | 0.00 | 0.43 | 0.29 | 99 | 1014.0 |
| 20260510031556 | 71 | 0 | 0.0 | 0.9 | 0.00 | 0.43 | 0.29 | 99 | 1013.9 |
| 20260510030056 | 71 | 0 | 0.0 | 0.9 | 0.00 | 0.43 | 0.29 | 99 | 1013.9 |
| 20260510024610 | 71 | 360 | 0.0 | 1.7 | 0.00 | 0.43 | 0.29 | 99 | 1013.4 |
| 20260510023100 | 71 | 0 | 0.0 | 0.9 | 0.00 | 0.43 | 0.29 | 98 | 1013.2 |
| 20260510021602 | 71 | 0 | 0.0 | 0.9 | 0.00 | 0.43 | 0.29 | 98 | 1013.0 |
| 20260510020056 | 71 | 0 | 0.0 | 0.9 | 0.01 | 0.43 | 0.29 | 98 | 1012.7 |
| 20260510014612 | 71 | 0 | 0.0 | 1.7 | 0.01 | 0.43 | 0.29 | 98 | 1012.5 |
| 20260510013102 | 71 | 0 | 0.0 | 2.6 | 0.01 | 0.43 | 0.29 | 98 | 1012.8 |
| 20260510011553 | 71 | 0 | 0.0 | 0.9 | 0.01 | 0.43 | 0.29 | 98 | 1012.1 |
| 20260510010053 | 71 | 0 | 0.0 | 0.9 | 0.00 | 0.42 | 0.28 | 98 | 1012.2 |
| 20260510004600 | 71 | 0 | 0.0 | 0.9 | 0.00 | 0.42 | 0.28 | 98 | 1012.5 |
| 20260510003052 | 71 | 0 | 0.0 | 1.7 | 0.00 | 0.42 | 0.28 | 98 | 1012.6 |
| 20260510001552 | 71 | 0 | 0.0 | 0.9 | 0.00 | 0.42 | 0.28 | 98 | 1012.5 |
| 20260510000056 | 71 | 0 | 0.0 | 0.9 | 0.00 | 0.42 | 0.28 | 98 | 1012.5 |
| 20260509234554 | 72 | 0 | 0.0 | 0.0 | 0.00 | 0.42 | 0.28 | 97 | 1012.3 |
| 20260509233053 | 72 | 0 | 0.0 | 0.9 | 0.00 | 0.42 | 0.28 | 97 | 1012.3 |
| 20260509231604 | 72 | 0 | 0.0 | 0.9 | 0.00 | 0.42 | 0.28 | 97 | 1012.2 |
| 20260509230055 | 72 | 0 | 0.0 | 2.6 | 0.00 | 0.42 | 0.28 | 97 | 1012.3 |
| 20260509224552 | 72 | 0 | 0.0 | 1.7 | 0.00 | 0.42 | 0.28 | 97 | 1012.3 |
| 20260509223056 | 72 | 0 | 0.0 | 1.7 | 0.00 | 0.42 | 0.28 | 97 | 1012.4 |
| 20260509221553 | 72 | 0 | 0.0 | 4.3 | 0.00 | 0.42 | 0.28 | 97 | 1012.1 |
| 20260509220059 | 72 | 0 | 0.0 | 1.7 | 0.00 | 0.42 | 0.28 | 97 | 1012.3 |
| 20260509214557 | 72 | 0 | 0.9 | 2.6 | 0.02 | 0.42 | 0.28 | 96 | 1012.2 |
| 20260509213055 | 73 | 19 | 0.0 | 1.7 | 0.04 | 0.42 | 0.28 | 96 | 1012.1 |
| 20260509211558 | 73 | 0 | 0.9 | 6.1 | 0.06 | 0.42 | 0.28 | 96 | 1012.1 |
| 20260509210054 | 75 | 0 | 0.0 | 0.9 | 0.06 | 0.42 | 0.28 | 96 | 1011.8 |
| 20260509204553 | 75 | 0 | 0.0 | 1.7 | 0.04 | 0.40 | 0.26 | 96 | 1011.8 |
| 20260509203054 | 75 | 279 | 0.0 | 2.6 | 0.06 | 0.38 | 0.24 | 96 | 1011.8 |
| 20260509201552 | 75 | 0 | 0.0 | 0.9 | 0.12 | 0.36 | 0.22 | 95 | 1011.7 |
| 20260509200056 | 75 | 0 | 0.0 | 1.7 | 0.16 | 0.36 | 0.22 | 94 | 1011.6 |
| 20260509194553 | 76 | 280 | 0.0 | 0.9 | 0.16 | 0.36 | 0.22 | 93 | 1011.7 |
| 20260509193055 | 76 | 0 | 0.0 | 1.7 | 0.12 | 0.32 | 0.18 | 91 | 1011.8 |
| 20260509191553 | 77 | 0 | 0.0 | 0.9 | 0.03 | 0.23 | 0.09 | 89 | 1011.8 |
| 20260509190054 | 78 | 0 | 0.0 | 2.6 | 0.00 | 0.20 | 0.06 | 84 | 1011.6 |
| 20260509184549 | 79 | 78 | 0.9 | 3.5 | 0.00 | 0.20 | 0.06 | 82 | 1011.5 |
| 20260509183052 | 80 | 250 | 0.0 | 5.2 | 0.00 | 0.20 | 0.06 | 82 | 1011.8 |
| 20260509181552 | 80 | 0 | 0.0 | 3.5 | 0.00 | 0.20 | 0.06 | 83 | 1011.7 |
| 20260509180054 | 79 | 85 | 0.9 | 3.5 | 0.00 | 0.20 | 0.06 | 83 | 1011.9 |
| 20260509174555 | 79 | 0 | 0.0 | 2.6 | 0.00 | 0.20 | 0.06 | 83 | 1012.2 |
| 20260509173116 | 79 | 59 | 0.9 | 1.7 | 0.00 | 0.20 | 0.06 | 83 | 1012.2 |
| 20260509171553 | 79 | 276 | 0.9 | 2.6 | 0.00 | 0.20 | 0.06 | 85 | 1012.3 |
| 20260509164559 | 78 | 222 | 0.0 | 2.6 | 0.00 | 0.20 | 0.06 | 85 | 1012.3 |
| 20260509163059 | 78 | 11 | 0.9 | 2.6 | 0.00 | 0.20 | 0.06 | 84 | 1012.3 |
| 20260509161554 | 78 | 0 | 0.9 | 3.5 | 0.00 | 0.20 | 0.06 | 85 | 1012.8 |
| 20260509160051 | 77 | 271 | 0.0 | 1.7 | 0.00 | 0.20 | 0.06 | 86 | 1012.7 |
| 20260509154551 | 76 | 0 | 0.0 | 1.7 | 0.00 | 0.20 | 0.06 | 87 | 1012.6 |
| 20260509153054 | 77 | 348 | 0.9 | 2.6 | 0.00 | 0.20 | 0.06 | 85 | 1012.7 |
| 20260509151616 | 77 | 0 | 0.0 | 2.6 | 0.00 | 0.20 | 0.06 | 86 | 1013.0 |
| 20260509150054 | 76 | 0 | 0.0 | 2.6 | 0.00 | 0.20 | 0.06 | 88 | 1012.9 |
| 20260509144552 | 75 | 288 | 0.0 | 1.7 | 0.00 | 0.20 | 0.06 | 89 | 1013.0 |
| 20260509143103 | 74 | 0 | 0.0 | 2.6 | 0.00 | 0.20 | 0.06 | 91 | 1013.1 |
| 20260509141555 | 74 | 0 | 0.0 | 1.7 | 0.00 | 0.20 | 0.06 | 92 | 1012.6 |
| 20260509140052 | 73 | 280 | 1.7 | 3.5 | 0.00 | 0.20 | 0.06 | 94 | 1012.9 |
| 20260509134555 | 72 | 299 | 0.9 | 4.3 | 0.00 | 0.20 | 0.06 | 95 | 1012.9 |
| 20260509133054 | 72 | 266 | 0.9 | 2.6 | 0.00 | 0.20 | 0.06 | 96 | 1012.7 |
| 20260509131559 | 72 | 0 | 0.0 | 1.7 | 0.00 | 0.20 | 0.06 | 97 | 1012.4 |
| 20260509130126 | 71 | 0 | 0.9 | 2.6 | 0.00 | 0.20 | 0.06 | 97 | 1012.5 |
| 20260509124555 | 71 | 240 | 0.9 | 2.6 | 0.00 | 0.20 | 0.06 | 98 | 1012.2 |
| 20260509123120 | 70 | 0 | 0.9 | 2.6 | 0.00 | 0.20 | 0.06 | 98 | 1012.4 |